Airfield :







YOU CAN JOIN US ON...

 
LOGIN :

Register | Disclaimer

   EN    FR    IT 

 









Legend :    VFR   Marginal VFR   IFR   Intensive IFR   Very Intensive IFR
Visi :
Ceiling :
>= 8 km
>= 3000ft
5 to 8 km
1000 to 3000 ft
1500m to 5 km
500 to 1000 ft
800 to 1500m
200 to 500 ft
< 800m
< 200 ft
Symbols :   Thunderstorms  Fog  Heavy snow  Heavy precipitations  Wind > 20 kt






- Airport Elevation : 122 ft
- IATA code : YTQ


CYTQ - Tasiujaq

EXPIRED METARs :
  • 071900Z VRB02KT 15SM -SN BKN015 BKN170 BKN240 M09/M13 A2994 RMK SC5AC1CI1 VRY LGT PCPN LAST OBS/NEXT 081200UTC SLP145
  • 071800Z 03005KT 330V060 12SM -SN BKN015 BKN077 BKN240 M09/M13 A2995 RMK SC6AC1CI1 AC TR VRY LGT PCPN SLP147

Expired Forecast.



MET'MAP, your aeronautical weather chart ! - Copyright ORBIFLY December 2007 - Disclaimer

ORBIFLY MET'MAP TEAM :

Programming & Development : Alexandra Zaïnal
Concept & original design : Baudouin d'Aumeries
Assistance for programming : Marc-Olivier Méhu
Technical & hardware support : Manuel Goepfert

Contact : metmap@orbifly.com




SOURCES & CREDITS :

   NOAA